Regional Weather Roundup
Issued by NWS

Home | Current Version | Previous Version | Text Only | Print | Product List | Glossary On
Versions: 1 2 3 4 5 6 7 8 9 10 11 12 13 14 15 16 17 18 19 20 21 22 23 24 25 26 27 28 29 30 31 32 33 34 35 36 37 38 39 40 41 42 43 44 45 46 47 48 49 50
000
ASUS45 KBOU 301710
RWRCO

WEATHER ROUNDUP FOR COLORADO
NATIONAL WEATHER SERVICE DENVER/BOULDER CO
1100 AM MDT THU JUL 30 2015

NOTE: "FAIR" INDICATES FEW OR NO CLOUDS BELOW 12000 FEET WITH NO
SIGNIFICANT WEATHER AND/OR OBSTRUCTIONS TO VISIBILITY.

COZ001>005-013-030-031-301800-
...NORTHWEST COLORADO...

CITY           SKY/WX    TMP DP  RH WIND       PRES   REMARKS
CRAIG          SUNNY     76  34  21 N3        30.42F
HAYDEN         SUNNY     73  34  23 E6        30.44S
MEEKER         SUNNY     75  36  24 CALM      30.42F
MOUNT WERNER   NOT AVBL
STEAMBOAT SPGS SUNNY     70  32  24 CALM      30.46F
WALDEN         SUNNY     66  30  26 CALM      30.56S
$$

COZ006>008-011-301800-
...WEST CENTRAL VALLEYS...

CITY           SKY/WX    TMP DP  RH WIND       PRES   REMARKS
GRAND JUNCTION SUNNY     81  34  18 SE7       30.31F
MONTROSE       SUNNY     80  43  26 VRB3      30.39F
EAGLE          SUNNY     72  37  28 CALM      30.47F
RIFLE          SUNNY     76  37  24 CALM      30.36F
DELTA          SUNNY     82  40  22 SE5       30.34F
NUCLA          SUNNY     79  43  27 N5        30.42F
$$

COZ017>023-064>068-301800-
...SOUTHWEST COLORADO...

CITY           SKY/WX    TMP DP  RH WIND       PRES   REMARKS
DURANGO        SUNNY     72  50  45 CALM      30.44F
CORTEZ         SUNNY     76  52  43 VRB3      30.39F
PAGOSA SPRINGS SUNNY     68  45  42 CALM      30.51F
TELLURIDE      SUNNY     68  37  31 NW3       30.62F
WOLF CREEK PAS NOT AVBL
$$

COZ009-010-012-014-032>034-037-058>063-301800-
...CENTRAL COLORADO...

CITY           SKY/WX    TMP DP  RH WIND       PRES   REMARKS
ASPEN          SUNNY     73  41  31 VRB3      30.51F
BUENA VISTA    SUNNY     69  47  43 CALM      30.53F
COPPER MTN     SUNNY     59  19  21 W16G23    30.83S
BERTHOUD PASS  FAIR      52  41  66 N3        30.88S
COTTONWOOD PAS SUNNY     70  37  30 E3        30.67S
GUNNISON       SUNNY     66  43  42 CALM      30.54F
KREMMLING      SUNNY     70  28  21 W3        30.54F
LEADVILLE        N/A     65  23  20 SW3       30.66F
MONARCH PASS   MOSUNNY   55  30  38 E17G23    30.91S
SALIDA         SUNNY     73  46  38 W5        30.57F
SUNLIGHT       SUNNY     63  32  31 CALM      30.77R
WILKERSON PASS MOSUNNY   59  34  38 E5        30.81S
$$

COZ069>075-301800-
...SAN LUIS VALLEY/SANGRE DE CRISTO MOUNTAINS...

CITY           SKY/WX    TMP DP  RH WIND       PRES   REMARKS
ALAMOSA        MOSUNNY   68  50  52 W5        30.51F
LA VETA PASS   PTSUNNY   61  46  59 MISG      30.68S
SAGUACHE       SUNNY     68  50  52 S5        30.54F
$$

COZ035-036-038>040-301800-
...NORTHERN COLORADO FRONT RANGE...

CITY           SKY/WX    TMP DP  RH WIND       PRES   REMARKS
DENVER INTL AP MOSUNNY   79  47  32 VRB6      30.36S
DMNS CITY PARK   N/A     81  48  30 SE6       30.35S
AURORA         NOT AVBL
FRONT RANGE AP MOSUNNY   79  46  31 W3        30.37S
ERIE MUNI ARPT SUNNY     80  44  27 CALM      30.34S
BOULDER MUN AP SUNNY     79  48  34 CALM      30.35S
CENTENNIAL     MOSUNNY   79  49  34 VRB3      30.39S
BROOMFIELD     MOSUNNY   82  46  28 CALM      30.38F
FORT COLLINS   SUNNY     81  52  36 N6        30.34S
LONGMONT       SUNNY     83  48  28 CALM      30.35S
$$

COZ041-046-047-076>085-087-088-301800-
...PIKES PEAK/PALMER DIVIDE AND SOUTHERN FOOTHILLS...

CITY           SKY/WX    TMP DP  RH WIND       PRES   REMARKS
COLO. SPRINGS  MOSUNNY   76  52  43 VRB6      30.42F
A. F. ACADEMY  NOT AVBL
ELLICOTT       SUNNY    N/A N/A N/A E6        30.41S
FALCON         SUNNY     76  45  33 CALM      30.47S
FORT CARSON    NOT AVBL
LIMON          SUNNY     74  61  63 VRB7      30.38S
MONUMENT HILL  SUNNY     72  48  43 W3        30.48S
TRINIDAD       PTSUNNY   74  55  51 W14G22    30.38S
$$

COZ042>045-048>051-090-091-301800-
...NORTHEAST COLORADO...

CITY           SKY/WX    TMP DP  RH WIND       PRES   REMARKS
GREELEY ARPT   SUNNY     77  57  50 NE6       30.33S
AKRON          SUNNY     81  59  47 SW9       30.32S
BURLINGTON     SUNNY     79  65  62 S8        30.33S
WRAY           SUNNY     85  64  48 S6        30.29S
STERLING       SUNNY     81  63  54 W6        30.28F
HOLYOKE        SUNNY     84  64  51 S6        30.29S
FORT MORGAN    SUNNY     79  54  42 S3        30.32
$$

COZ086-089-092>099-301800-
...SOUTHEAST COLORADO...

CITY           SKY/WX    TMP DP  RH WIND       PRES   REMARKS
PUEBLO         SUNNY     80  57  45 VRB5      30.32F
LA JUNTA       PTSUNNY   80  55  42 VRB3      30.30S
LAMAR          PTSUNNY   84  62  47 VRB7      30.26F
SPRINGFIELD      N/A     78  56  46 S7        30.33S
$$


USA.gov is the U.S. government's official web portal to all federal, state and local government web resources and services.